This demonstration page uses our WeatherBlox Daily Observations layout. Learn more.

38.88101, -77.10428

Hourly Observations for June 29, 2015

Temp ( °F °C ) Dew Point ( °F °C ) Humidity (%) Winds ( mph kmh ) Pressure ( in mb ) Visibility ( mi km ) Precip ( " mm )
12:52 am 00:52 Clear 68 20 56 13.3 65 65 SSW 7 11 29.89 1012 10 16.0934 0 0
1:52 am 01:52 Clear 69 20.6 54 12.2 59 59 W 7 11 29.89 1012 10 16.0934 0 0
2:52 am 02:52 Clear 67 19.4 55 12.8 66 66 SW 6 9 29.9 1013 10 16.0934 0 0
3:52 am 03:52 Clear 65 18.3 55 12.8 70 70 SSW 5 7 29.92 1013 10 16.0934 0 0
4:52 am 04:52 Clear 64 17.8 55 12.8 73 73 SSW 9 15 29.94 1014 10 16.0934 0 0
5:52 am 05:52 Mostly Sunny 63 17.2 54 12.2 73 73 WSW 5 7 29.96 1014 10 16.0934 0 0
6:52 am 06:52 Mostly Sunny 66 18.9 55 12.8 68 68 WSW 6 9 29.97 1015 10 16.0934 0 0
7:52 am 07:52 Mostly Sunny 70 21.1 56 13.3 61 61 S 6 9 29.97 1015 10 16.0934 0 0
8:52 am 08:52 Mostly Sunny 75 23.9 54 12.2 48 48 SW 9 15 29.98 1015 10 16.0934 0 0
9:52 am 09:52 Mostly Sunny 78 25.6 53 11.7 42 42 WSW 8 13 29.99 1016 10 16.0934 0 0
10:52 am 10:52 Mostly Sunny 80 26.7 55 12.8 42 42 W 10 17 29.98 1015 10 16.0934 0 0
11:52 am 11:52 Mostly Sunny 81 27.2 56 13.3 42 42 W 8 13 29.98 1015 10 16.0934 0 0
12:52 pm 12:52 Partly Cloudy 82 27.8 55 12.8 40 40 VRB 5 7 29.97 1015 10 16.0934 0 0
1:52 pm 13:52 Partly Cloudy 81 27.2 57 13.9 44 44 S 8 13 29.96 1015 10 16.0934 0 0
2:52 pm 14:52 Partly Cloudy 82 27.8 59 15 46 46 S 13 20 29.95 1014 10 16.0934 0 0
3:52 pm 15:52 Mostly Cloudy 82 27.8 57 13.9 42 42 S 13 20 29.94 1014 10 16.0934 0 0
4:52 pm 16:52 Partly Cloudy 83 28.3 53 11.7 36 36 S 10 17 29.94 1014 10 16.0934 0 0
5:52 pm 17:52 Partly Cloudy 82 27.8 57 13.9 42 42 S 9 15 29.93 1014 10 16.0934 0 0
6:52 pm 18:52 Partly Cloudy 81 27.2 58 14.4 45 45 S 9 15 29.92 1013 10 16.0934 0 0
7:52 pm 19:52 Partly Cloudy 77 25 62 16.7 60 60 S 8 13 29.93 1014 10 16.0934 0 0
8:52 pm 20:52 Partly Cloudy 77 25 61 16.1 58 58 S 6 9 29.94 1014 10 16.0934 0 0
9:52 pm 21:52 Partly Cloudy 74 23.3 65 18.3 74 74 S 6 9 29.95 1014 10 16.0934 0 0
10:52 pm 22:52 Partly Cloudy 75 23.9 61 16.1 62 62 S 7 11 29.95 1014 10 16.0934 0 0
11:52 pm 23:52 Clear 73 22.8 62 16.7 69 69 S 5 7 29.95 1014 10 16.0934 0 0

Powered by AerisWeather